Location: Gugi
(45.4667°N, 11.1000°E)
Time: 07:45:29
(UTC+00:00)

Meteor 1-25 Rocket - Pass Details

Date: 17 November 2019
Orbit: 836 x 892 km, 81.2° (Epoch: 10 December)

Event Time Altitude Azimuth Distance (km) Brightness Sun altitude
Rises 17:39:14 0° 353° (N) 3,427 7.4 -20.1°
Reaches altitude 10° 17:41:45 10° 360° (N) 2,495 6.6 -20.5°
Maximum altitude 17:47:13 48° 74° (ENE) 1,120 4.4 -21.5°
Enters shadow 17:48:24 42° 109° (ESE) 1,220 4.6 -21.7°
